Location: LDNL
(36.4545°S, 141.6685°E)
Time: 11:55:36
(UTC+10:00)

Tiros 1 despin weight - Pass Details

Date: 14 August 2022
Orbit: 590 x 639 km, 48.2° (Epoch: 23 September)

Event Time Altitude Azimuth Distance (km) Brightness Sun altitude
Rises 23:57:25 0° 297° (WNW) 2,884 - -66.3°
Reaches altitude 10° 23:59:44 10° 294° (WNW) 1,991 - -66.5°
Maximum altitude 00:04:17 63° 212° (SSW) 707 - -66.8°
Drops below altitude 10° 00:08:57 10° 130° (SE) 2,036 - -67.1°
Sets 00:11:20 0° 127° (SE) 2,954 - -67.3°
